Tracking 20942 objects as of 9-Jul-2020
HD Live streaming from Space Station
objects crossing your sky now

FENGYUN 1C DEB

Track FENGYUN 1C DEB now!
10-day predictions


NORAD ID: 38721
Int'l Code: 1999-025ETN
Perigee: 788.9 km
Apogee: 898.4 km
Inclination: 98.9 °
Period: 101.6 minutes
Semi major axis: 7214 km
RCS: 0.0013 m2 (small)
Launch date: May 10, 1999
Source: People's Republic of China (PRC)
Launch site: Taiyaun Space Center, China (TSC)

Note: This is SATELLITE DEBRIS
aabbcc
Your satellite tracking list
Your tracking list is empty




NASA's NSSDC Master Catalog

Two Line Element Set (TLE):
1 38721U 99025ETN 20186.48826487  .00000557  00000-0  29327-3 0  9993
2 38721  98.9158 264.7816 0075953 304.5964  54.8062 14.16706798559639
Source of the keplerian elements: AFSPC